[[{"header":{"parameterUnit":"m.s-1","parameterCategory":1,"la1":30.2991,"la2":30.254,"lo1":-89.0895,"lo2":-89.0444,"dy":0.0017,"dx":0.0017,"nx":28,"ny":28,"refTime":"2025-03-23T09:00:00:Z","depth":0,"parameterNumber":2,"parameterNumberName":"U-component_of_WINDS"},"data":[0,0,0,0,0,0,0,0,0,0,0,0,0,0,0,0,0,0,0,0,0,0,0,0,0,0,0,0,0,0,0,0,0,0,0,0,0,0,0,0,0,0,0,0,0,0,0,0,0,0,0,0,0,0,0,0,0,0,-2.5481,-2.5481,0,-2.5507,-2.5507,-2.5508,-2.5501,-2.5501,-2.55,-2.55,-2.5526,-2.5527,-2.5528,0,0,0,0,0,0,0,0,0,0,0,0,0,-2.5427,-2.5428,-2.5481,-2.5482,-2.5482,-2.5507,-2.5507,-2.5508,-2.5501,-2.5501,-2.55,-2.5499,-2.5526,-2.5527,-2.5528,0,0,0,0,0,0,0,0,0,0,0,0,0,-2.5451,-2.5428,-2.5481,-2.5482,-2.5482,-2.5507,-2.5507,-2.5508,-2.5501,-2.5501,-2.55,-2.5499,-2.5525,-2.5527,-2.5529,-2.5554,0,0,-2.5534,-2.5535,0,0,0,0,0,0,0,0,-2.545,-2.5453,-2.5481,-2.5482,-2.5482,-2.55,-2.5498,-2.5523,-2.5502,-2.5494,-2.55,-2.5499,-2.5518,-2.552,-2.5527,-2.5556,-2.5557,-2.5534,-2.5535,-2.5536,-2.5536,0,0,0,0,0,0,0,-2.5448,-2.5452,-2.5491,-2.5482,-2.5482,-2.5481,-2.5483,-2.5503,-2.551,-2.5495,-2.5494,-2.5497,-2.5518,-2.5525,-2.5527,-2.5557,-2.5534,-2.5536,-2.5537,-2.5537,-2.5608,-2.5609,0,0,0,0,0,0,-2.5446,-2.5451,-2.5491,-2.5492,-2.5464,-2.5482,-2.5485,-2.5495,-2.551,-2.5511,-2.5498,-2.5497,-2.5522,-2.5525,-2.5528,-2.5559,-2.5536,-2.5538,-2.5539,-2.5608,-2.5609,-2.561,0,0,0,0,0,0,-2.5445,-2.545,-2.549,-2.5471,-2.5476,-2.5484,-2.5495,-2.5496,-2.5503,-2.5512,-2.5513,-2.5504,-2.5522,-2.5526,-2.5548,-2.556,-2.5538,-2.554,-2.5607,-2.5608,-2.5609,-2.562,0,0,0,0,0,0,-2.5444,-2.5449,-2.5459,-2.5472,-2.5477,-2.5509,-2.5496,-2.5497,-2.5506,-2.5505,-2.5518,-2.5519,-2.5522,-2.5545,-2.555,-2.5562,-2.5541,-2.5606,-2.5607,-2.5609,-2.5619,-2.5622,-2.5624,0,0,0,0,0,-2.5442,-2.5462,-2.546,-2.5465,-2.549,-2.5509,-2.5513,-2.5515,-2.5507,-2.5517,-2.5523,-2.5519,-2.5558,-2.5548,-2.5552,-2.5565,-2.5605,-2.5607,-2.5609,-2.5618,-2.5621,-2.5624,0,0,0,0,0,0,-2.545,-2.5463,-2.5461,-2.5486,-2.5496,-2.5508,-2.5521,-2.5519,-2.5532,-2.553,-2.5532,-2.5535,-2.5558,-2.5564,-2.5552,-2.5591,-2.558,-2.5583,-2.5586,-2.5589,-2.5592,-2.5589,-2.5543,0,0,0,0,0,-2.5455,-2.547,-2.548,-2.5501,-2.5506,-2.5513,-2.5521,-2.5522,-2.5533,-2.5538,-2.5546,-2.5557,-2.5571,-2.5581,-2.5595,-2.5621,-2.5623,-2.5632,-2.5635,-2.5637,-2.5639,-2.5652,-2.5656,-2.5616,-2.5616,-2.5616,0,0,-2.5465,-2.5474,-2.5483,-2.5503,-2.5511,-2.5526,-2.5516,-2.5533,-2.5544,-2.554,-2.5561,-2.5568,-2.558,-2.5604,-2.5615,-2.561,-2.5651,-2.5639,-2.5641,-2.5642,-2.5654,-2.5658,-2.5662,-2.5617,-2.5617,-2.5617,0,0,-2.549,-2.5499,-2.5516,-2.5525,-2.5538,-2.5542,-2.5547,-2.5559,-2.5563,-2.5584,-2.5581,-2.5595,-2.5621,-2.5629,-2.5637,-2.5667,-2.5663,-2.5672,-2.5685,-2.5698,-2.5701,-2.5704,-2.5713,-2.5717,-2.5674,-2.5674,-2.5674,0,-2.55,-2.5523,-2.5526,-2.5542,-2.5551,-2.5549,-2.5567,-2.5575,-2.5592,-2.5598,-2.5593,-2.5624,-2.5633,-2.5658,-2.5665,-2.5672,-2.5677,-2.5669,-2.5701,-2.5703,-2.5706,-2.5715,-2.5719,-2.5675,-2.5675,-2.5675,-2.5674,0,-2.5535,-2.5551,-2.5563,-2.558,-2.559,-2.5607,-2.5613,-2.5623,-2.5623,-2.5628,-2.565,-2.566,-2.5676,-2.5683,-2.5683,-2.5708,-2.5705,-2.57,-2.5689,-2.5711,-2.5719,-2.5723,-2.5676,-2.5676,-2.5675,-2.5675,0,0,-2.5565,-2.5583,-2.5587,-2.5594,-2.5609,-2.5621,-2.5639,-2.5654,-2.5662,-2.5675,-2.5689,-2.5711,-2.5707,-2.5716,-2.5717,-2.5729,-2.5751,-2.5723,-2.5723,-2.5727,-2.5778,-2.5781,-2.5785,-2.5749,-2.575,-2.5751,-2.5777,0,-2.559,-2.562,-2.5624,-2.565,-2.5665,-2.5663,-2.5678,-2.5689,-2.5694,-2.5707,-2.5714,-2.5729,-2.5722,-2.5728,-2.5739,-2.5746,-2.5761,-2.5744,-2.5762,-2.5763,-2.5757,-2.5789,-2.5792,-2.5816,-2.578,-2.5781,-2.5781,0,-2.5624,-2.5637,-2.5665,-2.5677,-2.5683,-2.5697,-2.5711,-2.5724,-2.5736,-2.5739,-2.5749,-2.575,-2.5768,-2.5758,-2.5782,-2.577,-2.5778,-2.5783,-2.5784,-2.5784,-2.5772,-2.5789,-2.5824,-2.5827,-2.5787,-2.5786,-2.5786,0,-2.5641,-2.5666,-2.5686,-2.5692,-2.5707,-2.5717,-2.5723,-2.5735,-2.5744,-2.5757,-2.5763,-2.5778,-2.5786,-2.5798,-2.5802,-2.5794,-2.5826,-2.5816,-2.5829,-2.5829,-2.5834,-2.5833,-2.5869,-2.5842,-2.5842,-2.5842,-2.5841,0,-2.5669,-2.5686,-2.5694,-2.5706,-2.5725,-2.5729,-2.5748,-2.5754,-2.5764,-2.5778,-2.5778,-2.5791,-2.5796,-2.581,-2.5814,-2.5833,-2.5837,-2.584,-2.584,-2.5839,-2.5838,-2.5843,-2.5841,-2.5842,-2.5842,-2.5842,-2.5842,0,-2.5691,-2.5697,-2.5718,-2.5731,-2.5735,-2.5748,-2.5759,-2.5771,-2.5776,-2.5793,-2.5797,-2.5806,-2.5822,-2.5828,-2.5848,-2.585,-2.5872,-2.5872,-2.5868,-2.5868,-2.5879,-2.5877,-2.5917,-2.5922,-2.5893,-2.5893,-2.5894,0,-2.5707,-2.572,-2.5734,-2.5743,-2.575,-2.5765,-2.5774,-2.5779,-2.5789,-2.5803,-2.5813,-2.5829,-2.5842,-2.5868,-2.5876,-2.5891,-2.589,-2.5903,-2.5892,-2.589,-2.5889,-2.5887,-2.5888,-2.5905,-2.5905,-2.5905,-2.5905,0,-2.5735,-2.5738,-2.5751,-2.5765,-2.5776,-2.5788,-2.5799,-2.5807,-2.5814,-2.5824,-2.5841,-2.5851,-2.5871,-2.5886,-2.5902,-2.5909,-2.5908,-2.5909,-2.5912,-2.591,-2.5907,-2.5908,-2.5872,-2.5908,-2.5907,-2.5907,-2.5907,-2.5907,-2.5754,-2.5765,-2.5777,-2.5792,-2.5801,-2.5811,-2.5823,-2.583,-2.5843,-2.586,-2.5862,-2.5879,-2.5892,-2.5912,-2.592,-2.5934,-2.593,-2.5935,-2.5936,-2.5937,-2.5937,-2.5906,-2.5937,-2.5937,-2.5937,-2.5937,-2.5937,0,-2.5781,-2.5789,-2.5802,-2.5818,-2.583,-2.5828,-2.5841,-2.5851,-2.5866,-2.5877,-2.589,-2.5908,-2.5924,-2.5933,-2.5948,-2.5957,-2.5957,-2.5961,-2.596,-2.5961,-2.594,-2.5935,-2.5961,-2.5961,-2.5961,-2.5961,-2.5961,-2.5961,-2.5797,-2.5815,-2.5819,-2.5842,-2.585,-2.5866,-2.5874,-2.5883,-2.5892,-2.5913,-2.5925,-2.5932,-2.5942,-2.5958,-2.5972,-2.5975,-2.598,-2.5984,-2.5986,-2.5966,-2.5963,-2.596,-2.5956,-2.5985,-2.5985,-2.6006,-2.6006,-2.6006]},{"header":{"parameterUnit":"m.s-1","parameterCategory":1,"la1":30.2991,"la2":30.254,"lo1":-89.0895,"lo2":-89.0444,"dy":0.0017,"dx":0.0017,"nx":28,"ny":28,"refTime":"2025-03-23T09:00:00:Z","depth":0,"parameterNumber":3,"parameterNumberName":"V-component_of_WINDS"},"data":[0,0,0,0,0,0,0,0,0,0,0,0,0,0,0,0,0,0,0,0,0,0,0,0,0,0,0,0,0,0,0,0,0,0,0,0,0,0,0,0,0,0,0,0,0,0,0,0,0,0,0,0,0,0,0,0,0,0,4.1325,4.1325,0,4.1358,4.1358,4.1359,4.1357,4.1356,4.1356,4.1355,4.1389,4.1391,4.1392,0,0,0,0,0,0,0,0,0,0,0,0,0,4.1262,4.1263,4.1325,4.1325,4.1326,4.1358,4.1358,4.1359,4.1357,4.1356,4.1356,4.1355,4.1389,4.139,4.1392,0,0,0,0,0,0,0,0,0,0,0,0,0,4.1292,4.1264,4.1325,4.1329,4.1329,4.1358,4.1358,4.1359,4.1357,4.1356,4.1356,4.1355,4.1388,4.139,4.1392,4.1419,0,0,4.1399,4.1399,0,0,0,0,0,0,0,0,4.129,4.1294,4.1328,4.1328,4.1329,4.1353,4.1349,4.1379,4.1357,4.1346,4.1355,4.1355,4.1378,4.1381,4.1388,4.1421,4.1422,4.1399,4.14,4.1401,4.1401,0,0,0,0,0,0,0,4.1288,4.1293,4.1338,4.1328,4.1329,4.1329,4.1333,4.1355,4.1366,4.1347,4.1347,4.1351,4.1378,4.1386,4.1389,4.1423,4.1399,4.14,4.1402,4.1403,4.1483,4.1484,0,0,0,0,0,0,4.1285,4.1291,4.1337,4.1339,4.1307,4.1331,4.1335,4.1346,4.1365,4.1368,4.1352,4.1351,4.1383,4.1387,4.139,4.1426,4.1401,4.1403,4.1404,4.1482,4.1484,4.1485,0,0,0,0,0,0,4.1284,4.1289,4.1336,4.1315,4.1321,4.1333,4.1345,4.1347,4.1355,4.1369,4.1371,4.1358,4.1383,4.1387,4.1413,4.1427,4.1404,4.1405,4.1481,4.1483,4.1484,4.1495,0,0,0,0,0,0,4.1282,4.1289,4.1298,4.1315,4.1322,4.1357,4.1346,4.1348,4.1359,4.1358,4.1375,4.1378,4.1383,4.141,4.1415,4.1429,4.1407,4.148,4.1482,4.1484,4.1493,4.1497,4.1499,0,0,0,0,0,4.128,4.1299,4.1298,4.1304,4.1334,4.1358,4.1362,4.1367,4.136,4.137,4.138,4.1377,4.1425,4.1413,4.1418,4.1433,4.1479,4.1482,4.1484,4.1492,4.1496,4.1499,0,0,0,0,0,0,4.1282,4.1301,4.1301,4.1326,4.1341,4.1357,4.137,4.137,4.1387,4.1385,4.1391,4.1395,4.1422,4.143,4.1416,4.1462,4.1451,4.1454,4.1456,4.146,4.1462,4.146,4.1409,0,0,0,0,0,4.1286,4.1303,4.1319,4.134,4.1347,4.1358,4.1368,4.1371,4.1386,4.1392,4.1403,4.1418,4.1437,4.1448,4.1466,4.1495,4.15,4.1508,4.1511,4.1514,4.1516,4.1536,4.154,4.1492,4.1492,4.1491,0,0,4.1293,4.1306,4.1316,4.1341,4.1352,4.1371,4.1362,4.1382,4.1396,4.1395,4.142,4.1429,4.1447,4.1475,4.1488,4.1482,4.1531,4.1516,4.1518,4.152,4.1538,4.1543,4.1547,4.1493,4.1493,4.1492,0,0,4.1316,4.1327,4.1347,4.1359,4.1377,4.1385,4.139,4.1407,4.1414,4.1439,4.144,4.1458,4.1489,4.1502,4.1513,4.1545,4.1545,4.1551,4.1566,4.1585,4.1589,4.1592,4.1606,4.1611,4.1554,4.1554,4.1554,0,4.1323,4.1351,4.1357,4.1378,4.139,4.1391,4.1412,4.1424,4.1446,4.1455,4.1449,4.1491,4.1502,4.1535,4.1544,4.1552,4.1559,4.1549,4.1588,4.1591,4.1594,4.1608,4.1613,4.1555,4.1555,4.1554,4.1554,0,4.1359,4.1379,4.1393,4.1417,4.143,4.1451,4.1462,4.1475,4.1478,4.1487,4.1515,4.153,4.1552,4.156,4.1562,4.1594,4.1591,4.1586,4.1575,4.16,4.1613,4.1617,4.1556,4.1555,4.1555,4.1555,0,0,4.1383,4.1412,4.1417,4.1429,4.1451,4.1467,4.1489,4.1511,4.1524,4.154,4.156,4.1588,4.1586,4.1598,4.1602,4.1619,4.1647,4.1612,4.1613,4.162,4.1686,4.169,4.1696,4.1647,4.1648,4.1648,4.1685,0,4.1409,4.1448,4.1457,4.1491,4.1511,4.1514,4.1534,4.155,4.156,4.1579,4.1589,4.161,4.1604,4.1612,4.1628,4.164,4.1661,4.1637,4.1667,4.1668,4.1663,4.1702,4.1705,4.1739,4.169,4.1691,4.1692,0,4.1445,4.1464,4.1501,4.1523,4.1532,4.1549,4.1572,4.159,4.161,4.1616,4.1632,4.1635,4.1661,4.1649,4.1685,4.1669,4.1682,4.169,4.1692,4.1695,4.1681,4.1708,4.175,4.1756,4.1699,4.1698,4.1698,0,4.1461,4.1496,4.1523,4.1533,4.1559,4.1572,4.1583,4.1602,4.1617,4.1637,4.1647,4.167,4.1683,4.1701,4.1712,4.1702,4.1748,4.1736,4.1755,4.1755,4.1765,4.1764,4.1811,4.1772,4.1771,4.1771,4.1771,0,4.149,4.1513,4.1531,4.1547,4.1574,4.1584,4.1611,4.1622,4.164,4.166,4.1665,4.1684,4.1696,4.1718,4.1727,4.1757,4.1762,4.1769,4.1771,4.1769,4.1769,4.1778,4.1776,4.1773,4.1772,4.1772,4.1772,0,4.1511,4.1524,4.1555,4.1578,4.1585,4.1604,4.1624,4.1642,4.1653,4.1679,4.1685,4.1703,4.1729,4.1742,4.1773,4.178,4.1814,4.1814,4.1808,4.1809,4.1828,4.1827,4.1883,4.1892,4.1845,4.1846,4.1846,0,4.1529,4.1547,4.1574,4.1588,4.16,4.1623,4.1638,4.165,4.1666,4.1692,4.1707,4.1733,4.1755,4.1797,4.1813,4.1839,4.184,4.1858,4.1844,4.1842,4.1843,4.1842,4.1845,4.1861,4.1861,4.1862,4.1862,0,4.1561,4.1567,4.1589,4.1614,4.1632,4.1652,4.1672,4.1684,4.1699,4.1717,4.1745,4.1762,4.1796,4.1823,4.185,4.1864,4.1866,4.1867,4.1873,4.1871,4.1867,4.1872,4.1816,4.1865,4.1865,4.1865,4.1864,4.1864,4.1582,4.1599,4.1622,4.1647,4.1663,4.1683,4.1701,4.1716,4.1739,4.1768,4.1774,4.1803,4.1826,4.1864,4.1878,4.1903,4.1898,4.1907,4.1909,4.1911,4.1913,4.1863,4.1907,4.1907,4.1907,4.1907,4.1907,0,4.1615,4.163,4.1653,4.1682,4.1703,4.1704,4.1727,4.1745,4.1771,4.1792,4.1814,4.1847,4.1875,4.1894,4.1923,4.1939,4.1941,4.1946,4.1945,4.1949,4.1914,4.1907,4.1944,4.1944,4.1944,4.1944,4.1944,4.1944,4.1635,4.1665,4.1675,4.1715,4.173,4.176,4.1773,4.1792,4.1809,4.1846,4.1869,4.1882,4.1904,4.1934,4.1961,4.1966,4.1977,4.1982,4.1987,4.1955,4.1951,4.1947,4.194,4.1984,4.1984,4.2021,4.2021,4.2021]}]]